Time,TemperatureF,DewpointF,PressureIn,WindDirection,WindDirectionDegrees,WindSpeedMPH,WindSpeedGustMPH,Humidity,HourlyPrecipIn,Conditions,Clouds,dailyrainin,SoftwareType,DateUTC
2013-06-08 00:02:00,60.0,40.0,30.00,East,100,0.0,0.0,47,0.00,,,0.00,,2013-06-08 05:02:00,
2013-06-08 00:12:00,60.0,40.0,30.00,East,100,0.0,0.0,47,0.00,,,0.00,,2013-06-08 05:12:00,
2013-06-08 00:22:00,60.0,40.0,30.00,SSE,158,2.0,2.0,47,0.00,,,0.00,,2013-06-08 05:22:00,
2013-06-08 00:32:00,59.0,39.0,30.00,SW,229,0.0,2.0,47,0.00,,,0.00,,2013-06-08 05:32:00,
2013-06-08 00:42:00,59.0,39.0,30.00,SW,229,0.0,2.0,47,0.00,,,0.00,,2013-06-08 05:42:00,
2013-06-08 00:52:00,59.0,38.0,29.99,SW,229,0.0,0.0,46,0.00,,,0.00,,2013-06-08 05:52:00,
2013-06-08 01:02:00,59.0,42.0,29.99,WNW,294,2.0,3.0,53,0.00,,,0.00,,2013-06-08 06:02:00,
2013-06-08 01:12:00,59.0,42.0,29.99,WNW,294,2.0,3.0,53,0.00,,,0.00,,2013-06-08 06:12:00,
2013-06-08 01:22:00,57.0,47.0,29.99,WNW,287,3.0,4.0,68,0.00,,,0.00,,2013-06-08 06:22:00,
2013-06-08 01:32:00,56.0,46.0,29.99,WNW,286,2.0,4.0,68,0.00,,,0.00,,2013-06-08 06:32:00,
2013-06-08 01:42:00,56.0,46.0,29.99,WNW,286,2.0,4.0,68,0.00,,,0.00,,2013-06-08 06:42:00,
2013-06-08 01:52:00,56.0,47.0,29.99,WNW,286,2.0,2.0,73,0.00,,,0.00,,2013-06-08 06:52:00,
2013-06-08 02:02:00,57.0,42.0,29.98,WNW,286,0.0,1.0,58,0.00,,,0.00,,2013-06-08 07:02:00,
2013-06-08 02:12:00,57.0,42.0,29.98,WNW,286,0.0,1.0,58,0.00,,,0.00,,2013-06-08 07:12:00,
2013-06-08 02:22:00,57.0,47.0,29.99,WNW,286,2.0,3.0,70,0.00,,,0.00,,2013-06-08 07:22:00,
2013-06-08 02:32:00,55.0,47.0,29.99,WNW,288,3.0,4.0,74,0.00,,,0.00,,2013-06-08 07:32:00,
2013-06-08 02:42:00,55.0,47.0,29.99,WNW,288,3.0,4.0,74,0.00,,,0.00,,2013-06-08 07:42:00,
2013-06-08 02:52:00,54.0,47.0,29.99,WNW,294,4.0,5.0,76,0.00,,,0.00,,2013-06-08 07:52:00,
2013-06-08 03:02:00,54.0,46.0,29.99,WNW,296,4.0,6.0,75,0.00,,,0.00,,2013-06-08 08:02:00,
2013-06-08 03:12:00,54.0,46.0,29.99,WNW,296,4.0,6.0,75,0.00,,,0.00,,2013-06-08 08:12:00,
2013-06-08 03:22:00,54.0,45.0,29.99,WNW,303,4.0,6.0,72,0.00,,,0.00,,2013-06-08 08:22:00,
2013-06-08 03:32:00,54.0,46.0,30.00,WNW,293,4.0,6.0,73,0.00,,,0.00,,2013-06-08 08:32:00,
2013-06-08 03:42:00,54.0,46.0,30.00,WNW,293,4.0,6.0,73,0.00,,,0.00,,2013-06-08 08:42:00,
2013-06-08 03:53:00,53.0,44.0,30.00,WNW,301,4.0,7.0,71,0.00,,,0.00,,2013-06-08 08:53:00,
2013-06-08 04:02:00,53.0,43.0,30.00,NW,304,3.0,6.0,69,0.00,,,0.00,,2013-06-08 09:02:00,
2013-06-08 04:12:00,53.0,43.0,30.00,NW,304,3.0,6.0,69,0.00,,,0.00,,2013-06-08 09:12:00,
2013-06-08 04:22:00,53.0,44.0,30.00,NW,304,3.0,5.0,71,0.00,,,0.00,,2013-06-08 09:22:00,
2013-06-08 04:33:00,53.0,46.0,30.00,North,9,1.0,4.0,77,0.00,,,0.00,,2013-06-08 09:33:00,
2013-06-08 04:43:00,53.0,46.0,30.00,North,9,1.0,4.0,77,0.00,,,0.00,,2013-06-08 09:43:00,
2013-06-08 04:53:00,54.0,47.0,30.00,NW,311,1.0,4.0,77,0.00,,,0.00,,2013-06-08 09:53:00,
2013-06-08 05:02:00,53.0,46.0,30.00,NW,311,1.0,2.0,78,0.00,,,0.00,,2013-06-08 10:02:00,
2013-06-08 05:12:00,53.0,46.0,30.00,NW,311,1.0,2.0,78,0.00,,,0.00,,2013-06-08 10:12:00,
2013-06-08 05:22:00,53.0,46.0,30.00,NW,311,1.0,3.0,76,0.00,,,0.00,,2013-06-08 10:22:00,
2013-06-08 05:33:00,54.0,47.0,30.01,NW,311,0.0,1.0,77,0.00,,,0.00,,2013-06-08 10:33:00,
2013-06-08 05:42:00,54.0,47.0,30.01,NW,311,0.0,1.0,77,0.00,,,0.00,,2013-06-08 10:42:00,
2013-06-08 05:53:00,54.0,47.0,30.01,NW,311,1.0,3.0,78,0.00,,,0.00,,2013-06-08 10:53:00,
2013-06-08 06:02:00,54.0,48.0,30.01,WNW,300,2.0,4.0,79,0.00,,,0.00,,2013-06-08 11:02:00,
2013-06-08 06:12:00,54.0,48.0,30.01,WNW,300,2.0,4.0,79,0.00,,,0.00,,2013-06-08 11:12:00,
2013-06-08 06:22:00,54.0,47.0,30.01,WNW,290,3.0,5.0,76,0.00,,,0.00,,2013-06-08 11:22:00,
2013-06-08 06:32:00,54.0,47.0,30.01,WNW,286,4.0,5.0,78,0.00,,,0.00,,2013-06-08 11:32:00,
2013-06-08 06:42:00,54.0,47.0,30.01,WNW,286,4.0,5.0,78,0.00,,,0.00,,2013-06-08 11:42:00,
2013-06-08 06:52:00,54.0,48.0,30.02,WNW,284,1.0,6.0,81,0.00,,,0.00,,2013-06-08 11:52:00,
2013-06-08 07:02:00,55.0,48.0,30.02,WNW,285,1.0,3.0,78,0.00,,,0.00,,2013-06-08 12:02:00,
2013-06-08 07:12:00,55.0,48.0,30.02,WNW,285,1.0,3.0,78,0.00,,,0.00,,2013-06-08 12:12:00,
2013-06-08 07:22:00,56.0,48.0,30.02,WNW,285,0.0,2.0,74,0.00,,,0.00,,2013-06-08 12:22:00,
2013-06-08 07:32:00,56.0,49.0,30.02,WNW,289,1.0,4.0,76,0.00,,,0.00,,2013-06-08 12:32:00,
2013-06-08 07:42:00,56.0,49.0,30.02,WNW,289,1.0,4.0,76,0.00,,,0.00,,2013-06-08 12:42:00,
2013-06-08 07:52:00,57.0,50.0,30.02,WNW,289,0.0,1.0,77,0.00,,,0.00,,2013-06-08 12:52:00,
2013-06-08 08:02:00,57.0,49.0,30.02,WNW,289,0.0,2.0,75,0.00,,,0.00,,2013-06-08 13:02:00,
2013-06-08 08:12:00,57.0,49.0,30.02,WNW,289,0.0,2.0,75,0.00,,,0.00,,2013-06-08 13:12:00,
2013-06-08 08:22:00,57.0,50.0,30.03,WNW,289,0.0,2.0,77,0.00,,,0.00,,2013-06-08 13:22:00,
2013-06-08 08:32:00,58.0,50.0,30.04,WNW,290,1.0,2.0,76,0.00,,,0.00,,2013-06-08 13:32:00,
2013-06-08 08:42:00,58.0,50.0,30.04,WNW,290,1.0,2.0,76,0.00,,,0.00,,2013-06-08 13:42:00,
2013-06-08 08:52:00,58.0,49.0,30.04,WNW,292,0.0,3.0,72,0.00,,,0.00,,2013-06-08 13:52:00,
2013-06-08 09:02:00,59.0,49.0,30.05,WNW,300,2.0,3.0,69,0.00,,,0.00,,2013-06-08 14:02:00,
2013-06-08 09:12:00,59.0,49.0,30.05,WNW,300,2.0,3.0,69,0.00,,,0.00,,2013-06-08 14:12:00,
2013-06-08 09:22:00,60.0,49.0,30.06,WNW,301,1.0,4.0,66,0.00,,,0.00,,2013-06-08 14:22:00,
2013-06-08 09:32:00,61.0,50.0,30.06,NW,305,0.0,3.0,66,0.00,,,0.00,,2013-06-08 14:32:00,
2013-06-08 09:42:00,61.0,50.0,30.06,NW,305,0.0,3.0,66,0.00,,,0.00,,2013-06-08 14:42:00,
2013-06-08 09:52:00,61.0,48.0,30.05,ENE,66,2.0,4.0,62,0.00,,,0.00,,2013-06-08 14:52:00,
2013-06-08 10:02:00,62.0,50.0,30.04,NE,42,0.0,3.0,64,0.00,,,0.00,,2013-06-08 15:02:00,
2013-06-08 10:12:00,62.0,50.0,30.04,NE,42,0.0,3.0,64,0.00,,,0.00,,2013-06-08 15:12:00,
2013-06-08 10:22:00,64.0,50.0,30.04,NE,38,0.0,2.0,60,0.00,,,0.00,,2013-06-08 15:22:00,
2013-06-08 10:32:00,64.0,48.0,30.04,NE,56,2.0,4.0,57,0.00,,,0.00,,2013-06-08 15:32:00,
2013-06-08 10:42:00,64.0,48.0,30.04,NE,56,2.0,4.0,57,0.00,,,0.00,,2013-06-08 15:42:00,
2013-06-08 10:53:00,64.0,48.0,30.04,ENE,59,2.0,5.0,57,0.00,,,0.00,,2013-06-08 15:53:00,
2013-06-08 11:03:00,65.0,50.0,30.04,NE,46,1.0,5.0,58,0.00,,,0.00,,2013-06-08 16:03:00,
2013-06-08 11:12:00,65.0,50.0,30.04,NE,46,1.0,5.0,58,0.00,,,0.00,,2013-06-08 16:12:00,
2013-06-08 11:23:00,66.0,49.0,30.05,NNE,32,2.0,7.0,55,0.00,,,0.00,,2013-06-08 16:23:00,
2013-06-08 11:32:00,66.0,50.0,30.06,ENE,68,4.0,6.0,56,0.00,,,0.00,,2013-06-08 16:32:00,
2013-06-08 11:42:00,66.0,50.0,30.06,ENE,68,4.0,6.0,56,0.00,,,0.00,,2013-06-08 16:42:00,
2013-06-08 11:53:00,66.0,49.0,30.06,NE,38,3.0,8.0,54,0.00,,,0.00,,2013-06-08 16:53:00,
2013-06-08 12:02:00,67.0,49.0,30.05,NE,53,5.0,7.0,53,0.00,,,0.00,,2013-06-08 17:02:00,
2013-06-08 12:12:00,67.0,49.0,30.05,NE,53,5.0,7.0,53,0.00,,,0.00,,2013-06-08 17:12:00,
2013-06-08 12:22:00,68.0,48.0,30.05,NNE,15,3.0,6.0,49,0.00,,,0.00,,2013-06-08 17:22:00,
2013-06-08 12:32:00,68.0,49.0,30.05,North,11,3.0,9.0,51,0.00,,,0.00,,2013-06-08 17:32:00,
2013-06-08 12:42:00,68.0,49.0,30.05,North,11,3.0,9.0,51,0.00,,,0.00,,2013-06-08 17:42:00,
2013-06-08 12:52:00,69.0,50.0,30.05,NNE,27,3.0,9.0,50,0.00,,,0.00,,2013-06-08 17:52:00,
2013-06-08 13:02:00,69.0,50.0,30.05,NNE,30,2.0,12.0,51,0.00,,,0.00,,2013-06-08 18:02:00,
2013-06-08 13:12:00,69.0,50.0,30.05,NNE,30,2.0,12.0,51,0.00,,,0.00,,2013-06-08 18:12:00,
2013-06-08 13:22:00,70.0,49.0,30.05,NNE,26,6.0,12.0,47,0.00,,,0.00,,2013-06-08 18:22:00,
2013-06-08 13:32:00,69.0,50.0,30.05,NNE,26,2.0,11.0,50,0.00,,,0.00,,2013-06-08 18:32:00,
2013-06-08 13:42:00,69.0,50.0,30.05,NNE,26,2.0,11.0,50,0.00,,,0.00,,2013-06-08 18:42:00,
2013-06-08 13:52:00,69.0,50.0,30.05,NE,44,5.0,11.0,50,0.00,,,0.00,,2013-06-08 18:52:00,
2013-06-08 14:02:00,69.0,51.0,30.04,ENE,65,6.0,10.0,53,0.00,,,0.00,,2013-06-08 19:02:00,
2013-06-08 14:12:00,69.0,51.0,30.04,ENE,65,6.0,10.0,53,0.00,,,0.00,,2013-06-08 19:12:00,
2013-06-08 14:22:00,68.0,50.0,30.04,ENE,67,8.0,11.0,52,0.00,,,0.00,,2013-06-08 19:22:00,
2013-06-08 14:32:00,68.0,49.0,30.04,East,81,5.0,13.0,51,0.00,,,0.00,,2013-06-08 19:32:00,
2013-06-08 14:42:00,68.0,49.0,30.04,East,81,5.0,13.0,51,0.00,,,0.00,,2013-06-08 19:42:00,
2013-06-08 14:53:00,69.0,48.0,30.04,ENE,65,8.0,12.0,48,0.00,,,0.00,,2013-06-08 19:53:00,
2013-06-08 15:02:00,69.0,46.0,30.04,ENE,57,6.0,13.0,44,0.00,,,0.00,,2013-06-08 20:02:00,
2013-06-08 15:12:00,69.0,46.0,30.04,ENE,57,6.0,13.0,44,0.00,,,0.00,,2013-06-08 20:12:00,
2013-06-08 15:22:00,69.0,47.0,30.04,ENE,68,7.0,11.0,45,0.00,,,0.00,,2013-06-08 20:22:00,
2013-06-08 15:32:00,69.0,49.0,30.04,East,84,4.0,9.0,49,0.00,,,0.00,,2013-06-08 20:32:00,
2013-06-08 15:42:00,69.0,49.0,30.04,East,84,4.0,9.0,49,0.00,,,0.00,,2013-06-08 20:42:00,
2013-06-08 15:52:00,69.0,47.0,30.04,ENE,65,3.0,10.0,46,0.00,,,0.00,,2013-06-08 20:52:00,
2013-06-08 16:02:00,68.0,48.0,30.05,East,90,4.0,10.0,48,0.00,,,0.00,,2013-06-08 21:02:00,
2013-06-08 16:12:00,68.0,48.0,30.05,East,90,4.0,10.0,48,0.00,,,0.00,,2013-06-08 21:12:00,
2013-06-08 16:22:00,68.0,48.0,30.05,East,86,5.0,9.0,48,0.00,,,0.00,,2013-06-08 21:22:00,
2013-06-08 16:33:00,67.0,46.0,30.05,ESE,119,6.0,9.0,47,0.00,,,0.00,,2013-06-08 21:33:00,
2013-06-08 16:43:00,67.0,46.0,30.05,ESE,119,6.0,9.0,47,0.00,,,0.00,,2013-06-08 21:43:00,
2013-06-08 16:53:00,68.0,47.0,30.06,ENE,65,4.0,9.0,47,0.00,,,0.00,,2013-06-08 21:53:00,
2013-06-08 17:02:00,67.0,47.0,30.06,East,97,4.0,9.0,48,0.00,,,0.00,,2013-06-08 22:02:00,
2013-06-08 17:12:00,66.0,46.0,30.06,East,95,5.0,10.0,48,0.00,,,0.00,,2013-06-08 22:12:00,
2013-06-08 17:22:00,66.0,46.0,30.06,East,95,5.0,10.0,48,0.00,,,0.00,,2013-06-08 22:22:00,
2013-06-08 17:33:00,66.0,46.0,30.06,ENE,63,6.0,12.0,48,0.00,,,0.00,,2013-06-08 22:33:00,
2013-06-08 17:42:00,66.0,45.0,30.06,ENE,78,5.0,10.0,46,0.00,,,0.00,,2013-06-08 22:42:00,
2013-06-08 17:52:00,66.0,45.0,30.06,ENE,78,5.0,10.0,46,0.00,,,0.00,,2013-06-08 22:52:00,
2013-06-08 18:02:00,65.0,45.0,30.06,ESE,104,3.0,9.0,48,0.00,,,0.00,,2013-06-08 23:02:00,
2013-06-08 18:12:00,65.0,45.0,30.06,ENE,74,5.0,11.0,49,0.00,,,0.00,,2013-06-08 23:12:00,
2013-06-08 18:22:00,65.0,45.0,30.06,ENE,74,5.0,11.0,49,0.00,,,0.00,,2013-06-08 23:22:00,
2013-06-08 18:32:00,64.0,47.0,30.06,ENE,64,3.0,10.0,54,0.00,,,0.00,,2013-06-08 23:32:00,
2013-06-08 18:42:00,64.0,47.0,30.06,ENE,64,3.0,10.0,54,0.00,,,0.00,,2013-06-08 23:42:00,
2013-06-08 18:52:00,63.0,47.0,30.07,SE,132,3.0,9.0,56,0.00,,,0.00,,2013-06-08 23:52:00,
2013-06-08 19:02:00,63.0,48.0,30.07,NE,48,3.0,8.0,58,0.00,,,0.00,,2013-06-09 00:02:00,
2013-06-08 19:12:00,63.0,48.0,30.07,NE,48,3.0,8.0,58,0.00,,,0.00,,2013-06-09 00:12:00,
2013-06-08 19:22:00,63.0,48.0,30.07,East,81,5.0,9.0,59,0.00,,,0.00,,2013-06-09 00:22:00,
2013-06-08 19:32:00,62.0,48.0,30.07,ESE,103,2.0,7.0,61,0.00,,,0.00,,2013-06-09 00:32:00,
2013-06-08 19:42:00,62.0,48.0,30.07,ESE,103,2.0,7.0,61,0.00,,,0.00,,2013-06-09 00:42:00,
2013-06-08 19:52:00,62.0,49.0,30.08,East,82,2.0,7.0,63,0.00,,,0.00,,2013-06-09 00:52:00,
2013-06-08 20:02:00,61.0,49.0,30.08,ESE,103,2.0,7.0,65,0.00,,,0.00,,2013-06-09 01:02:00,
2013-06-08 20:12:00,60.0,49.0,30.08,ENE,76,2.0,6.0,68,0.00,,,0.00,,2013-06-09 01:12:00,
2013-06-08 20:22:00,60.0,49.0,30.08,ENE,76,2.0,6.0,68,0.00,,,0.00,,2013-06-09 01:22:00,
2013-06-08 20:32:00,60.0,50.0,30.08,ENE,71,3.0,7.0,69,0.00,,,0.00,,2013-06-09 01:32:00,
2013-06-08 20:42:00,60.0,50.0,30.08,ENE,71,3.0,7.0,69,0.00,,,0.00,,2013-06-09 01:42:00,
2013-06-08 20:52:00,59.0,50.0,30.08,ESE,107,2.0,5.0,73,0.00,,,0.00,,2013-06-09 01:52:00,
2013-06-08 21:02:00,58.0,50.0,30.08,ESE,121,2.0,7.0,75,0.00,,,0.00,,2013-06-09 02:02:00,
2013-06-08 21:12:00,58.0,50.0,30.08,ESE,121,2.0,7.0,75,0.00,,,0.00,,2013-06-09 02:12:00,
2013-06-08 21:22:00,58.0,50.0,30.08,East,92,4.0,7.0,76,0.00,,,0.00,,2013-06-09 02:22:00,
2013-06-08 21:32:00,57.0,50.0,30.08,East,81,4.0,7.0,78,0.00,,,0.00,,2013-06-09 02:32:00,
2013-06-08 21:42:00,57.0,50.0,30.08,East,81,4.0,7.0,78,0.00,,,0.00,,2013-06-09 02:42:00,
2013-06-08 21:52:00,57.0,51.0,30.09,ESE,105,3.0,7.0,81,0.00,,,0.00,,2013-06-09 02:52:00,
2013-06-08 22:02:00,56.0,51.0,30.09,ENE,72,3.0,6.0,82,0.00,,,0.00,,2013-06-09 03:02:00,
2013-06-08 22:12:00,56.0,51.0,30.09,ENE,72,3.0,6.0,82,0.00,,,0.00,,2013-06-09 03:12:00,
2013-06-08 22:22:00,55.0,50.0,30.09,ENE,63,5.0,7.0,84,0.00,,,0.00,,2013-06-09 03:22:00,
2013-06-08 22:33:00,55.0,50.0,30.09,East,84,5.0,10.0,84,0.00,,,0.00,,2013-06-09 03:33:00,
2013-06-08 22:43:00,55.0,50.0,30.09,East,84,5.0,10.0,84,0.00,,,0.00,,2013-06-09 03:43:00,
2013-06-08 22:53:00,55.0,51.0,30.09,East,83,5.0,8.0,85,0.00,,,0.00,,2013-06-09 03:53:00,
2013-06-08 23:02:00,55.0,51.0,30.08,East,92,3.0,8.0,85,0.00,,,0.00,,2013-06-09 04:02:00,
2013-06-08 23:12:00,55.0,51.0,30.08,East,92,3.0,8.0,85,0.00,,,0.00,,2013-06-09 04:12:00,
2013-06-08 23:22:00,55.0,51.0,30.09,ESE,108,2.0,7.0,85,0.00,,,0.00,,2013-06-09 04:22:00,
2013-06-08 23:32:00,55.0,51.0,30.09,East,86,5.0,8.0,85,0.00,,,0.00,,2013-06-09 04:32:00,
2013-06-08 23:42:00,55.0,51.0,30.09,East,86,5.0,8.0,85,0.00,,,0.00,,2013-06-09 04:42:00,
2013-06-08 23:53:00,55.0,50.0,30.09,ESE,121,1.0,8.0,84,0.00,,,0.00,,2013-06-09 04:53:00,